"Pseudo-MPEC" for P110e39

Created 2020 May 26 12:07:23 UT using Find_Orb

Click here for an explanation of pseudo-MPECs

 
 Astrometry: 
     P110e39  C2020 05 15;7L[81GE#B=r9^``e=0^wM_(Dlc]@$NF:fX;fAstrometry5]]-7F51
     P110e39  C2020 05 15vJu]d`redacted;TtyclickR^ZF+where]K1qpR)1?H!L_RPZi;tF51
     P110e39  C2020 05 15CisOkXd7caN4=:_gforlixd.?Z_qes:n8oexplanationgg;E+,bF51

Station data:
(F51) Pan-STARRS 1, Haleakala  (N20.707235 W156.255910)  US/Hawaii.
   Observers N. Primak, A. Schultz, S. Watters, J. Thiel, T. Goggia. Measurer
   PS1 Science Consortium. 1.8-m Ritchey-Chrétien + CCD.

Orbital elements:  P110e39
   Perihelion 2021 Jun 27.611769 +/- 224 TT = 14:40:56 (JD 2459393.111769)
Epoch 2020 May 15.0 TT = JDT 2458984.5   Earth MOID: 0.5620   Ma: 0.0496
M 186.42021651 +/- 140              (J2000 ecliptic)          AutoNEOCP
n   0.42480368 +/- 0.274            Peri.  155.83908 +/- 80
a   1.75257737 +/- 0.753            Node   244.65972 +/- 50
e   0.1208880 +/- 0.272             Incl.   20.19627 +/- 28
P   2.32/847.43d           H 20.2   G  0.15   U 11.9  SR
q 1.54071176 +/- 0.845    Q 1.96444299 +/- 34.7
From 3 observations 2020 May 15 (30.0 min); mean residual 0".02
Residuals in arcseconds: 
200515 F51  .02+  .01-    200515 F51  .03-  .02+    200515 F51  .02+  .01-    

Ephemerides (geocentric):
Date (UTC) HH   RA              Dec         delta   r     elong  mag " sig PA
---- -- -- --  -------------   -----------  ------ ------ -----  --- ---- ---
2020 05 26 12  13 57 15.256   -22 38 14.02  1.0254 1.9612 148.3 22.6 980' 153
2020 05 26 13  13 57 13.873   -22 37 23.95  1.0256 1.9612 148.3 22.6 983' 153
2020 05 26 14  13 57 12.494   -22 36 33.91  1.0258 1.9611 148.2 22.6 986' 153
2020 05 26 15  13 57 11.119   -22 35 43.88  1.0260 1.9611 148.2 22.6 988' 153
2020 05 26 16  13 57 09.748   -22 34 53.89  1.0262 1.9611 148.1 22.6 990' 154
2020 05 26 17  13 57 08.381   -22 34 03.91  1.0264 1.9611 148.1 22.6 993' 154
2020 05 26 18  13 57 07.019   -22 33 13.96  1.0266 1.9611 148.1 22.6 995' 154
2020 05 26 19  13 57 05.660   -22 32 24.03  1.0268 1.9611 148.0 22.6 996' 154
2020 05 26 20  13 57 04.306   -22 31 34.12  1.0270 1.9611 148.0 22.6 998' 154
2020 05 26 21  13 57 02.956   -22 30 44.24  1.0273 1.9611 147.9 22.6  17d 154
2020 05 26 22  13 57 01.610   -22 29 54.38  1.0275 1.9611 147.9 22.6  17d 155
2020 05 26 23  13 57 00.268   -22 29 04.55  1.0277 1.9611 147.8 22.6  17d 155
2020 05 27 00  13 56 58.931   -22 28 14.73  1.0279 1.9610 147.8 22.6  17d 155
2020 05 27 01  13 56 57.597   -22 27 24.94  1.0281 1.9610 147.7 22.6  17d 155
2020 05 27 02  13 56 56.268   -22 26 35.18  1.0283 1.9610 147.7 22.6  17d 155
2020 05 27 03  13 56 54.943   -22 25 45.44  1.0285 1.9610 147.7 22.6  17d 155
2020 05 27 04  13 56 53.622   -22 24 55.72  1.0287 1.9610 147.6 22.6  17d 155
2020 05 27 05  13 56 52.306   -22 24 06.02  1.0289 1.9610 147.6 22.6  17d 155
2020 05 27 06  13 56 50.993   -22 23 16.35  1.0291 1.9610 147.5 22.6  17d 155
2020 05 27 07  13 56 49.685   -22 22 26.70  1.0293 1.9610 147.5 22.6  17d 155
2020 05 27 08  13 56 48.380   -22 21 37.08  1.0296 1.9610 147.4 22.6  17d 155
2020 05 27 09  13 56 47.080   -22 20 47.48  1.0298 1.9609 147.4 22.6  17d 155
2020 05 27 10  13 56 45.784   -22 19 57.91  1.0300 1.9609 147.3 22.6  17d 155
2020 05 27 11  13 56 44.493   -22 19 08.36  1.0302 1.9609 147.3 22.6  17d 155
2020 05 27 12  13 56 43.205   -22 18 18.83  1.0304 1.9609 147.3 22.6  17d 155
2020 05 27 13  13 56 41.922   -22 17 29.33  1.0306 1.9609 147.2 22.7  17d 155
2020 05 27 14  13 56 40.643   -22 16 39.85  1.0308 1.9609 147.2 22.7  17d 155
2020 05 27 15  13 56 39.368   -22 15 50.40  1.0311 1.9609 147.1 22.7  17d 154
2020 05 27 16  13 56 38.097   -22 15 00.97  1.0313 1.9609 147.1 22.7  17d 154
2020 05 27 17  13 56 36.830   -22 14 11.56  1.0315 1.9609 147.0 22.7  17d 154
2020 05 27 18  13 56 35.568   -22 13 22.18  1.0317 1.9609 147.0 22.7  17d 154
2020 05 27 19  13 56 34.309   -22 12 32.83  1.0319 1.9608 147.0 22.7  17d 154
2020 05 27 20  13 56 33.055   -22 11 43.50  1.0321 1.9608 146.9 22.7  17d 153
2020 05 27 21  13 56 31.805   -22 10 54.19  1.0323 1.9608 146.9 22.7  17d 153
2020 05 27 22  13 56 30.560   -22 10 04.91  1.0326 1.9608 146.8 22.7  17d 153
2020 05 27 23  13 56 29.318   -22 09 15.66  1.0328 1.9608 146.8 22.7  17d 152
2020 05 28 00  13 56 28.081   -22 08 26.43  1.0330 1.9608 146.7 22.7  17d 152
2020 05 28 01  13 56 26.847   -22 07 37.22  1.0332 1.9608 146.7 22.7  17d 151
2020 05 28 02  13 56 25.618   -22 06 48.04  1.0334 1.9608 146.6 22.7  17d 151
2020 05 28 03  13 56 24.394   -22 05 58.89  1.0337 1.9608 146.6 22.7  18d 150
2020 05 28 04  13 56 23.173   -22 05 09.76  1.0339 1.9607 146.6 22.7  18d 150
2020 05 28 05  13 56 21.956   -22 04 20.65  1.0341 1.9607 146.5 22.7  18d 149
2020 05 28 06  13 56 20.744   -22 03 31.58  1.0343 1.9607 146.5 22.7  18d 149
2020 05 28 07  13 56 19.536   -22 02 42.52  1.0345 1.9607 146.4 22.7  18d 148
2020 05 28 08  13 56 18.332   -22 01 53.50  1.0347 1.9607 146.4 22.7  18d 147
2020 05 28 09  13 56 17.132   -22 01 04.49  1.0350 1.9607 146.3 22.7  18d 146
2020 05 28 10  13 56 15.937   -22 00 15.52  1.0352 1.9607 146.3 22.7  18d 146
2020 05 28 11  13 56 14.745   -21 59 26.57  1.0354 1.9607 146.2 22.7  18d 145